Location: ??
(35.5990°N, 139.7298°E)
Time: 09:06:09
(UTC+00:00)

H-2A R/B - Pass Details

Date: 07 June 2020
Orbit: 734 x 836 km, 98.2° (Epoch: 05 July)

Event Time Altitude Azimuth Distance (km) Brightness Sun altitude
Rises 10:53:42 0° 191° (S) 3,207 4.9 -10.8°
Reaches altitude 10° 10:56:11 10° 202° (SSW) 2,301 4.3 -11.2°
Maximum altitude 11:00:40 31° 264° (W) 1,338 3.7 -11.9°
Drops below altitude 10° 11:05:18 10° 326° (NW) 2,374 5.9 -12.6°
Sets 11:07:56 0° 336° (NNW) 3,325 6.6 -13.0°
